RH
81 84 86 86 88 89 87 88 87 85 83 80 78 76 70 69 69 55 41 42 43 37 38 44 45 43 41 39 39 39 39 44 49 46 40 38 38 38 40 38 35 34 32 29 32 33 28 23 23 24 26 27 26 24 22 21 23 30 35 38 37 29 24 25 28 30 37 45 47 44 44 48 51 53 55 57 57 54 51 52 52 53 54 52 49 47 45
80 82 86 87 88 89 89 89 89 88 89 88 85 82 77 73 74 68 58 52 47 38 34 35 39 44 46 46 45 46 45 45 47 45 40 38 38 38 38 37 37 38 36 35 37 40 40 35 30 29 29 29 28 25 22 22 24 29 35 37 36 31 26 25 25 28 35 45 49 46 44 47 50 51 54 56 55 52 49 49 49 49 50 49 48 46 44
78 76 82 85 87 90 90 89 89 93 94 93 92 91 86 83 80 75 71 67 55 42 37 34 34 37 43 47 49 50 49 45 42 41 41 39 36 35 36 37 38 39 39 41 43 43 42 38 33 34 35 34 33 29 24 22 24 30 36 37 35 33 29 28 27 28 36 46 51 49 47 49 51 51 53 53 53 51 49 47 46 46 47 47 45 44 43
76 72 79 84 87 91 92 91 91 94 97 96 96 95 94 96 94 87 83 74 56 45 46 45 41 39 39 41 44 45 45 44 41 39 37 34 32 34 37 38 40 42 42 44 45 45 42 36 32 35 37 36 37 37 31 24 24 31 36 39 38 32 29 31 30 31 38 46 51 52 50 51 52 52 51 51 51 51 48 46 45 44 45 44 43 43 44
75 71 76 84 90 92 90 91 93 95 97 97 97 97 97 98 98 96 90 77 61 55 58 56 50 47 44 41 41 39 37 41 44 41 36 31 31 35 37 40 43 43 42 43 43 42 41 38 35 37 39 36 35 37 36 31 29 32 36 40 37 29 28 31 31 34 39 42 47 50 48 49 51 51 50 49 49 49 47 44 44 44 43 43 42 42 44
75 71 76 83 88 90 89 89 90 90 92 94 95 95 95 95 96 95 90 82 72 65 63 62 58 54 50 47 45 41 39 42 46 45 40 34 34 38 42 48 48 42 38 41 43 42 43 42 40 39 38 36 34 33 37 39 38 35 38 42 37 27 28 31 30 33 37 39 41 45 46 47 49 48 47 48 48 47 45 44 44 44 43 42 41 42 44
76 72 76 80 82 86 90 87 85 86 87 90 91 89 91 95 96 95 93 90 87 81 73 67 63 60 59 57 54 50 48 47 47 45 40 36 38 42 46 49 47 40 36 40 45 46 45 45 45 41 35 35 35 35 38 43 43 38 37 41 38 30 28 30 30 32 34 35 38 40 41 43 45 45 45 47 48 46 44 44 45 43 42 41 41 41 44
74 72 73 75 78 85 87 83 84 89 88 88 90 89 92 96 97 97 98 95 94 94 87 74 64 60 60 59 54 51 52 51 48 46 43 41 41 42 42 43 40 37 41 48 50 49 46 45 46 43 37 34 33 34 36 40 41 39 39 40 37 32 30 29 29 30 31 32 35 37 38 38 40 42 43 44 47 46 43 44 44 41 40 41 41 41 44
74 74 71 69 75 85 87 83 84 87 86 87 92 96 96 96 96 98 100 97 96 98 95 86 74 64 60 58 52 46 47 50 48 45 44 42 40 36 35 38 37 38 52 64 61 53 49 48 46 43 39 35 34 35 37 39 40 40 40 39 37 33 31 28 27 29 29 30 32 34 35 35 36 40 42 43 45 45 42 43 41 39 40 42 41 41 44
76 79 76 72 78 87 88 85 80 77 76 79 88 96 97 95 95 97 98 99 97 97 97 93 83 72 66 62 53 45 44 45 43 42 38 34 31 29 31 37 39 42 55 64 60 51 48 47 46 43 38 34 33 36 39 44 48 44 39 40 41 37 34 30 28 28 28 28 30 31 32 32 35 38 40 42 45 44 42 42 41 40 41 42 41 41 44
78 78 75 73 82 89 88 84 77 70 70 75 83 92 94 93 97 96 96 97 97 96 98 96 90 83 73 62 53 50 49 49 48 46 42 38 36 35 36 38 39 42 47 51 53 53 50 45 44 42 38 33 34 36 37 42 47 47 44 45 46 43 40 35 30 28 29 28 28 30 30 30 33 36 39 42 44 43 41 41 41 40 41 40 40 42 45
75 74 68 68 81 87 82 80 77 69 66 72 82 90 91 93 98 98 96 97 97 97 98 98 96 94 83 68 59 57 58 55 52 49 49 50 50 47 42 35 34 41 47 50 54 57 52 46 43 40 37 34 34 37 38 38 40 45 48 47 47 49 48 42 33 30 31 29 28 29 30 30 32 35 39 42 43 42 41 41 41 41 40 40 40 43 47
69 72 69 68 78 81 75 76 76 68 62 69 82 92 96 96 97 97 97 98 98 98 98 98 98 97 91 77 63 58 57 53 50 53 59 61 59 55 46 36 33 39 47 53 56 54 49 46 43 40 37 36 36 39 41 39 39 43 46 45 45 47 49 46 38 31 30 29 28 28 29 31 33 35 38 41 42 41 41 41 40 40 40 39 41 45 48
65 70 71 71 75 73 70 72 72 69 70 77 84 91 95 97 96 95 97 99 98 98 99 99 97 95 92 83 68 58 56 51 49 55 60 58 54 50 43 39 37 37 41 49 53 49 47 45 43 41 38 37 39 43 44 42 41 41 43 44 42 41 42 43 38 32 31 30 28 28 30 31 32 34 37 39 40 41 41 40 39 40 40 40 43 46 49
64 67 72 77 78 72 69 70 69 72 79 83 84 85 88 92 95 97 98 98 99 98 98 99 98 93 90 85 73 63 58 54 51 53 53 50 46 43 39 38 37 37 42 49 50 47 47 46 43 43 42 38 41 46 46 44 45 46 44 43 43 40 39 40 38 36 36 36 33 31 31 31 31 32 34 36 38 39 39 38 40 40 39 41 44 47 49
71 73 72 76 78 75 74 73 73 78 82 81 80 83 88 90 93 96 97 98 99 98 98 99 97 92 86 83 76 69 62 56 53 53 53 49 43 40 38 38 36 38 44 50 51 51 51 47 44 46 47 44 44 46 44 44 49 54 52 47 45 44 41 40 40 39 40 43 42 36 32 31 32 32 32 34 35 36 37 39 40 40 39 42 45 48 50
75 73 67 71 76 76 76 74 74 78 80 76 75 82 87 88 89 93 95 95 97 98 98 98 95 88 83 81 78 73 67 62 58 54 52 47 42 38 37 38 40 43 47 52 53 52 51 47 43 43 46 47 46 45 44 45 50 57 59 55 50 47 45 43 41 42 45 49 49 44 35 32 34 34 33 34 33 33 35 37 38 39 40 43 46 49 52
66 63 65 74 75 71 69 69 72 76 76 72 72 77 81 83 86 90 91 93 96 97 96 96 91 85 83 84 81 76 72 70 65 59 54 49 45 41 39 40 45 50 55 59 58 53 50 48 42 38 42 47 48 46 47 50 52 56 63 66 59 51 46 43 43 49 52 52 52 50 41 34 34 35 34 34 34 33 34 36 37 39 41 45 49 51 53
61 61 66 69 66 64 65 64 66 72 74 72 73 76 79 81 86 90 91 91 93 96 96 95 92 90 89 87 81 78 77 76 70 65 64 61 53 48 47 50 54 58 61 63 60 54 49 47 43 40 43 49 51 49 49 53 55 56 62 68 67 59 52 48 49 52 53 51 53 54 45 37 36 36 34 34 33 33 35 36 38 39 43 48 51 52 54
59 60 61 58 56 61 67 64 62 65 69 69 72 76 78 80 86 91 91 88 90 93 95 93 93 94 93 86 80 78 78 78 73 69 69 66 57 53 56 60 62 62 62 61 58 54 50 48 46 45 44 48 53 56 55 55 55 57 62 68 69 67 62 57 54 55 54 53 56 56 51 44 39 35 34 34 34 35 37 38 39 43 47 50 52 54 56
57 58 56 52 52 57 65 70 70 69 71 71 70 72 74 77 83 88 87 86 87 89 92 92 90 91 90 86 84 83 78 75 74 72 71 68 62 58 60 60 58 57 57 56 54 54 56 57 54 49 49 53 61 65 64 61 61 65 71 74 74 72 69 64 61 60 59 57 57 56 51 46 39 35 35 36 37 38 40 41 44 48 51 53 55 57 59
62 60 59 59 59 58 62 68 70 70 72 71 70 70 70 72 77 82 82 83 84 85 88 89 87 87 86 84 85 87 84 78 73 71 71 70 67 63 56 51 50 51 53 53 52 54 60 64 60 55 54 57 62 67 70 71 72 74 76 76 74 71 70 68 67 65 62 58 56 52 47 43 40 40 40 41 43 44 45 47 51 52 53 56 57 59 61
64 62 63 66 65 61 60 61 62 62 65 65 65 67 68 67 70 77 82 84 82 81 83 86 85 85 86 83 81 82 84 82 76 71 69 68 66 62 56 51 50 49 51 56 57 55 58 62 63 61 58 55 58 67 72 74 77 78 79 79 76 71 67 67 69 69 66 61 58 54 50 47 45 44 45 47 49 51 52 53 53 53 55 58 59 61 62
62 63 66 67 65 62 58 57 59 60 61 62 62 64 66 66 68 77 86 87 83 80 81 82 82 82 85 87 83 79 80 82 80 75 70 67 69 71 65 59 54 50 54 63 66 62 62 65 66 67 66 61 62 69 73 72 73 74 76 78 77 72 68 68 70 72 70 66 64 62 59 54 51 50 51 54 56 56 56 55 56 57 59 62 63 64 63
61 63 65 65 65 63 59 59 62 63 64 64 63 63 65 67 68 74 83 87 86 83 80 79 78 79 83 87 88 84 80 81 83 80 75 74 82 88 80 69 67 68 72 78 77 71 69 69 67 68 70 69 69 72 74 74 73 70 70 73 76 76 76 75 75 75 73 70 68 67 64 60 58 57 58 59 60 59 58 58 60 62 64 65 66 65 63
62 63 64 64 65 64 63 62 63 64 65 67 66 65 66 67 66 69 77 84 85 84 83 80 77 77 80 86 88 87 83 81 82 82 79 78 88 96 92 85 87 90 91 92 86 74 69 72 73 73 74 74 73 73 75 77 77 73 70 70 75 81 86 85 82 82 80 76 72 71 69 69 68 65 62 61 60 61 62 63 64 65 66 67 66 64 62
62 63 62 60 60 62 63 63 61 59 61 64 67 68 68 67 67 67 71 77 79 80 83 83 78 74 78 84 88 87 85 82 83 84 81 81 88 97 99 98 98 96 94 93 85 73 71 77 82 82 80 80 78 76 74 76 78 76 73 69 68 72 79 84 85 86 84 80 78 75 72 71 71 68 65 63 62 63 65 65 66 67 66 64 63 62 61
61 60 58 55 53 53 56 60 61 60 60 61 65 68 69 70 70 66 66 70 73 74 79 84 81 76 76 83 89 88 84 84 87 88 86 86 90 96 99 102 101 95 90 86 81 76 77 82 84 83 83 83 83 80 76 74 74 73 73 72 70 70 71 73 77 82 81 78 79 80 75 71 69 68 66 65 65 65 66 66 65 63 61 60 64 66 66
57 55 53 51 50 49 51 55 59 61 60 59 63 67 70 71 70 68 66 66 67 69 75 83 86 81 77 82 90 90 84 83 88 90 89 90 93 96 98 98 99 96 90 86 82 81 82 83 84 83 83 82 82 81 77 74 73 73 74 74 75 76 76 70 70 76 78 75 76 79 76 72 71 71 69 68 67 65 64 62 61 58 57 61 68 71 68
54 51 50 49 49 49 49 51 55 58 58 57 59 62 66 68 70 70 68 66 64 66 72 81 88 87 82 84 89 89 83 81 82 85 89 94 97 98 97 94 93 94 94 92 90 88 87 86 86 84 82 81 82 82 79 76 74 74 73 72 70 71 73 70 68 72 76 74 74 75 74 72 71 70 69 68 67 65 64 63 61 59 58 63 69 69 66
52 52 50 49 50 50 49 51 53 55 55 56 57 57 59 63 68 71 72 70 66 64 67 77 87 89 86 86 89 88 83 80 79 80 86 93 98 100 98 94 91 90 91 92 93 92 91 92 92 89 85 82 83 84 84 83 79 75 73 72 69 68 70 72 73 75 77 76 73 70 69 68 66 66 65 64 64 64 64 63 62 59 60 65 68 67 65
52 53 53 52 53 53 54 56 57 59 60 60 59 57 56 57 62 67 71 72 71 66 65 72 84 91 90 88 89 89 84 81 81 81 82 87 93 97 97 95 94 92 89 88 89 90 91 93 94 94 92 89 86 85 85 85 85 83 81 77 73 71 70 71 72 73 73 72 70 68 66 64 63 62 61 60 60 61 62 61 61 61 62 67 69 66 63
52 52 54 54 55 56 59 61 63 66 66 65 63 62 59 57 57 60 66 70 71 69 67 70 79 88 91 90 91 91 85 79 79 81 82 83 87 91 94 96 96 95 93 90 88 88 90 92 94 94 94 91 88 87 87 88 88 88 87 85 82 78 74 70 69 66 64 63 64 64 64 64 63 63 62 61 61 62 62 62 62 63 64 66 68 65 63
56 55 54 55 54 55 57 59 62 64 65 65 66 65 64 62 60 59 61 64 67 68 69 70 74 81 87 89 89 89 85 77 73 74 79 84 85 84 88 92 94 93 92 91 90 88 87 87 89 91 91 90 89 89 89 91 91 90 89 89 87 84 80 76 73 71 68 66 64 63 63 64 64 64 64 64 63 62 61 61 61 63 64 65 65 64 65
58 57 56 55 54 53 53 54 56 58 59 61 62 63 65 67 66 63 61 61 61 63 67 70 72 77 84 87 87 85 82 78 73 68 71 78 82 79 79 83 87 88 88 88 89 89 87 85 86 87 88 89 90 91 91 91 92 93 92 90 88 86 84 83 81 80 78 76 73 71 70 69 70 70 71 71 70 68 66 64 64 65 66 66 65 65 71
51 52 53 54 54 53 52 52 52 53 55 57 57 58 61 64 65 65 64 62 60 59 62 66 71 77 82 85 86 84 79 76 74 69 66 70 77 77 72 73 78 83 84 84 86 89 89 87 86 85 86 87 89 90 90 89 90 92 92 90 88 87 86 86 87 86 84 81 79 77 75 73 73 73 74 75 77 77 76 74 72 70 69 69 69 71 76
47 47 48 49 50 49 48 47 47 49 51 54 55 56 58 60 62 65 65 64 63 62 61 62 68 77 82 83 85 85 81 76 74 70 66 66 72 73 70 67 71 77 81 83 84 85 87 88 86 85 85 85 85 86 86 85 86 90 92 92 92 91 89 88 89 88 87 85 84 83 82 80 78 78 77 77 79 80 81 80 78 76 74 74 75 75 75
43 42 41 41 40 40 39 39 40 42 45 49 52 54 56 58 60 62 63 63 64 64 63 62 65 73 80 83 83 83 83 79 75 71 68 67 68 67 66 65 67 70 74 78 81 83 85 87 87 87 86 83 83 85 86 83 83 87 91 93 95 96 95 93 90 88 87 88 88 87 86 86 85 85 84 83 83 83 83 83 82 81 78 76 77 76 75
38 35 33 31 31 32 33 34 35 37 39 43 46 49 52 55 57 59 60 60 61 62 64 64 64 67 74 80 83 83 82 81 78 75 73 72 68 66 65 64 65 66 67 70 74 79 83 84 86 89 89 85 82 84 87 86 85 86 88 89 91 94 96 96 94 91 90 90 92 92 91 91 91 91 89 88 87 87 87 86 85 83 81 79 79 79 79
32 30 30 29 29 30 31 33 34 35 37 39 41 43 46 49 52 54 57 59 59 59 60 62 64 65 69 76 84 86 85 84 83 81 79 78 76 72 69 67 67 66 67 66 67 71 75 78 82 87 89 88 86 85 87 88 89 89 89 89 90 91 93 96 97 96 95 93 93 94 95 95 96 96 94 93 91 91 90 90 90 89 89 87 86 86 88
30 29 29 30 30 31 31 33 35 36 37 39 41 42 42 43 46 49 52 55 57 57 57 58 60 62 65 72 82 87 88 88 88 86 84 83 83 80 75 73 70 67 65 65 64 64 66 70 75 80 84 88 90 89 89 90 91 90 90 92 92 92 93 95 96 97 97 97 96 95 94 94 95 96 97 97 97 97 97 97 96 97 97 97 96 96 97
28 28 28 29 30 32 33 33 35 36 38 40 41 43 43 43 43 44 46 50 54 55 55 55 57 58 61 65 74 83 88 91 93 92 89 86 86 83 78 75 72 67 63 62 62 62 62 63 66 71 75 82 89 92 92 93 94 93 92 93 91 88 89 92 94 94 95 96 96 96 95 93 93 94 95 96 97 97 98 100 100 100 100 100 100 100 99
25 25 25 26 27 30 32 34 35 37 38 41 43 44 45 46 45 44 44 48 52 53 54 54 55 57 59 61 67 76 85 89 92 94 92 88 86 83 79 75 72 70 66 62 60 60 61 60 61 63 66 72 79 85 87 91 93 92 91 92 91 88 87 88 91 92 92 92 93 95 95 92 91 91 92 92 93 94 94 95 97 97 97 97 98 99 99
25 25 24 25 25 26 28 32 34 37 39 41 44 46 46 47 48 48 47 48 52 55 55 54 54 57 62 64 66 72 81 88 92 93 93 90 87 83 79 75 73 72 69 65 61 61 62 62 61 61 62 64 66 69 74 81 88 90 90 91 93 92 90 89 88 88 88 88 89 91 92 90 89 89 89 89 90 91 91 92 93 93 94 94 94 93 94
27 26 26 26 26 26 27 29 32 36 39 41 44 46 48 49 50 49 48 50 53 56 58 57 56 59 66 71 71 72 77 85 90 92 92 91 89 86 82 78 74 72 71 68 65 64 66 68 66 64 63 62 61 60 62 68 77 82 86 89 92 92 91 92 91 89 87 86 87 88 88 87 86 86 86 87 87 88 89 90 91 93 94 95 94 93 93
29 28 28 28 28 28 29 30 31 34 37 40 43 47 51 53 53 51 49 50 52 56 60 62 62 63 68 74 76 75 76 80 85 89 91 90 90 89 87 84 79 75 72 69 67 66 67 69 68 66 64 62 60 59 59 61 66 71 76 82 87 89 90 92 93 92 89 88 87 86 86 86 85 83 83 82 82 82 82 84 85 87 90 92 93 94 94
30 30 30 30 31 31 31 32 33 34 37 40 42 46 51 55 56 55 52 51 52 55 60 65 67 67 69 73 76 77 77 77 81 86 89 90 91 90 90 88 84 79 75 73 71 69 68 68 68 67 64 61 61 62 61 60 62 65 69 73 78 83 85 88 90 90 90 90 88 85 83 83 82 82 81 81 80 80 79 79 79 80 82 83 85 86 88
30 31 32 32 32 32 32 33 35 35 37 39 43 47 52 56 58 58 56 55 53 52 55 59 64 68 69 71 74 77 77 77 79 82 87 91 92 92 92 92 89 85 81 79 77 74 72 71 71 69 65 64 67 71 69 64 62 65 68 70 71 74 79 82 84 84 85 87 88 86 83 81 80 79 78 78 79 79 79 79 79 78 79 79 79 79 81
30 32 33 33 32 31 31 33 34 34 36 39 43 48 53 57 59 60 60 60 59 56 54 56 61 65 68 69 72 75 77 77 78 80 84 88 91 92 93 95 94 90 87 86 83 79 75 75 75 73 70 69 72 76 75 70 66 67 68 69 69 71 74 78 80 82 84 85 87 88 87 86 83 81 78 75 74 73 73 75 77 79 80 82 82 82 82
32 34 34 33 30 30 30 32 34 35 36 38 42 47 53 58 60 62 63 64 64 63 61 60 60 63 66 68 68 71 74 77 77 77 80 85 90 92 92 93 94 94 92 90 86 81 76 75 77 77 74 71 71 74 74 72 70 70 70 69 69 70 73 75 78 81 83 82 81 83 86 86 85 83 81 77 74 72 71 73 76 78 80 80 79 78 77
35 35 34 31 29 29 30 31 33 35 36 38 41 47 54 58 61 63 64 65 66 68 68 67 65 65 66 66 66 66 69 72 74 75 77 81 88 92 93 93 93 94 95 94 92 87 80 76 78 80 76 71 70 71 72 72 71 72 71 68 66 67 70 74 76 79 82 81 80 81 83 82 80 80 80 81 80 78 77 76 76 77 78 77 75 73 71
34 33 32 30 28 28 29 29 31 34 36 38 42 48 54 59 62 64 66 68 68 69 70 71 70 69 69 68 67 67 67 69 72 74 76 79 85 92 97 96 95 95 96 97 97 93 86 81 82 84 80 74 73 74 74 71 69 70 70 67 63 66 75 83 85 85 87 88 87 85 86 86 84 84 85 85 84 83 81 79 76 74 72 71 69 68 67